H1 CPF 2 NER 2025 5 14 9 134 01 glonass106 H2 0705201 9106 32275 2025 5 14 0 0 0 2025 5 17 23 45 0 900 1 1 0 0 0 1 H9 10 0 60809 0.00000 0 3372395.209 21378406.404 -13510177.447 10 0 60809 900.00000 0 3409690.041 22886588.731 -10746617.359 10 0 60809 1800.00000 0 3569995.711 24035332.626 -7774416.988 10 0 60809 2700.00000 0 3801644.786 24794425.133 -4651264.385 10 0 60809 3600.00000 0 4048769.460 25146616.452 -1437791.184 10 0 60809 4500.00000 0 4253893.958 25088266.975 1803603.938 10 0 60809 5400.00000 0 4360600.519 24629442.353 5009967.450 10 0 60809 6300.00000 0 4316155.688 23793452.484 8119015.017 10 0 60809 7200.00000 0 4073985.162 22615853.712 11070343.276 10 0 60809 8100.00000 0 3595891.753 21142956.113 13806605.415 10 0 60809 9000.00000 0 2853921.810 19429898.504 16274627.420 10 0 60809 9900.00000 0 1831800.211 17538372.016 18426442.991 10 0 60809 10800.00000 0 525872.290 15534087.722 20220226.924 10 0 60809 11700.00000 0 -1054488.278 13484094.405 21621108.826 10 0 60809 12600.00000 0 -2887024.051 11454058.741 22601851.420 10 0 60809 13500.00000 0 -4937286.154 9505621.505 23143380.443 10 0 60809 14400.00000 0 -7159846.682 7693940.059 23235156.019 10 0 60809 15300.00000 0 -9499981.665 6065519.454 22875378.401 10 0 60809 16200.00000 0 -11895755.404 4656422.233 22071024.151 10 0 60809 17100.00000 0 -14280420.116 3490931.127 20837711.943 10 0 60809 18000.00000 0 -16585031.471 2580719.812 19199400.465 10 0 60809 18900.00000 0 -18741171.473 1924565.589 17187923.988 10 0 60809 19800.00000 0 -20683665.381 1508615.100 14842374.327 10 0 60809 20700.00000 0 -22353179.377 1307190.933 12208340.958 10 0 60809 21600.00000 0 -23698590.494 1284104.207 9337023.859 10 0 60809 22500.00000 0 -24679029.646 1394416.795 6284236.254 10 0 60809 23400.00000 0 -25265512.173 1586577.864 3109316.825 10 0 60809 24300.00000 0 -25442087.632 1804843.489 -126027.187 10 0 60809 25200.00000 0 -25206460.716 1991876.099 -3358923.069 10 0 60809 26100.00000 0 -24570057.519 2091412.905 -6526557.943 10 0 60809 27000.00000 0 -23557534.747 2050889.586 -9567401.943 10 0 60809 27900.00000 0 -22205752.972 1823907.511 -12422405.039 10 0 60809 28800.00000 0 -20562257.524 1372439.516 -15036143.886 10 0 60809 29700.00000 0 -18683331.259 668680.509 -17357896.317 10 0 60809 30600.00000 0 -16631701.163 -303535.750 -19342622.775 10 0 60809 31500.00000 0 -14473995.051 -1547813.897 -20951835.949 10 0 60809 32400.00000 0 -12278054.672 -3054807.645 -22154342.324 10 0 60809 33300.00000 0 -10110217.185 -4802380.938 -22926841.921 10 0 60809 34200.00000 0 -8032677.921 -6756313.607 -23254375.296 10 0 60809 35100.00000 0 -6101043.631 -8871522.925 -23130609.771 10 0 60809 36000.00000 0 -4362177.221 -11093751.053 -22557959.811 10 0 60809 36900.00000 0 -2852422.734 -13361649.017 -21547539.493 10 0 60809 37800.00000 0 -1596283.423 -15609171.382 -20118948.000 10 0 60809 38700.00000 0 -605606.901 -17768182.860 -18299892.072 10 0 60809 39600.00000 0 120689.639 -19771169.035 -16125652.305 10 0 60809 40500.00000 0 596343.685 -21553938.912 -13638403.097 10 0 60809 41400.00000 0 846933.532 -23058207.032 -10886398.796 10 0 60809 42300.00000 0 908561.200 -24233947.558 -7923041.272 10 0 60809 43200.00000 0 826088.170 -25041422.021 -4805846.535 10 0 60809 44100.00000 0 650998.813 -25452795.731 -1595330.133 10 0 60809 45000.00000 0 438982.179 -25453274.888 1646167.095 10 0 60809 45900.00000 0 247334.793 -25041716.410 4855690.051 10 0 60809 46800.00000 0 132294.808 -24230684.518 7970893.434 10 0 60809 47700.00000 0 146420.885 -23045951.373 10931254.670 10 0 60809 48600.00000 0 336127.338 -21525462.421 13679251.799 10 0 60809 49500.00000 0 739480.567 -19717809.606 16161483.090 10 0 60809 50400.00000 0 1384350.747 -17680276.267 18329706.380 10 0 60809 51300.00000 0 2286997.781 -15476535.486 20141777.796 10 0 60809 52200.00000 0 3451152.193 -13174098.035 21562471.654 10 0 60809 53100.00000 0 4867630.813 -10841616.490 22564165.660 10 0 60809 54000.00000 0 6514504.577 -8546157.899 23127378.306 10 0 60809 54900.00000 0 8357812.660 -6350558.498 23241148.157 10 0 60809 55800.00000 0 10352794.156 -4310970.475 22903247.816 10 0 60809 56700.00000 0 12445586.868 -2474702.555 22120228.424 10 0 60809 57600.00000 0 14575323.131 -878443.832 20907293.774 10 0 60809 58500.00000 0 16676535.828 453055.766 19288006.298 10 0 60809 59400.00000 0 18681774.622 1507794.143 17293830.372 10 0 60809 60300.00000 0 20524323.433 2286782.026 14963521.496 10 0 60809 61200.00000 0 22140905.635 2803754.224 12342372.970 10 0 60809 62100.00000 0 23474263.767 3084340.458 9481334.513 10 0 60809 63000.00000 0 24475505.581 3164731.781 6436019.886 10 0 60809 63900.00000 0 25106117.878 3089899.995 3265622.973 10 0 60809 64800.00000 0 25339563.455 2911446.301 31763.697 10 0 60809 65700.00000 0 25162394.007 2685171.209 -3202713.398 10 0 60809 66600.00000 0 24574832.208 2468469.437 -6374963.927 10 0 60809 67500.00000 0 23590798.602 2317660.938 -9423367.507 10 0 60809 68400.00000 0 22237382.368 2285371.725 -12288726.390 10 0 60809 69300.00000 0 20553778.413 2418075.934 -14915415.249 10 0 60809 70200.00000 0 18589735.649 2753903.522 -17252459.674 10 0 60809 71100.00000 0 16403581.646 3320806.611 -19254522.577 10 0 60809 72000.00000 0 14059906.439 4135162.193 -20882779.667 10 0 60809 72900.00000 0 11627002.165 5200870.434 -22105667.572 10 0 60809 73800.00000 0 9174165.076 6508986.938 -22899490.777 10 0 60809 74700.00000 0 6768971.907 8037905.001 -23248876.261 10 0 60809 75600.00000 0 4474643.243 9754080.895 -23147067.691 10 0 60809 76500.00000 0 2347602.684 11613272.670 -22596053.952 10 0 60809 77400.00000 0 435332.316 13562241.592 -21606529.779 10 0 60809 78300.00000 0 -1225387.456 15540846.126 -20197689.309 10 0 60809 79200.00000 0 -2609781.597 17484441.980 -18396856.326 10 0 60809 80100.00000 0 -3705874.489 19326488.844 -16238957.950 10 0 60809 81000.00000 0 -4514742.281 21001255.679 -13765851.427 10 0 60809 81900.00000 0 -5050214.035 22446512.004 -11025516.426 10 0 60809 82800.00000 0 -5338035.076 23606092.903 -8071127.973 10 0 60809 83700.00000 0 -5414528.499 24432230.400 -4960027.505 10 0 60809 84600.00000 0 -5324811.838 24887553.371 -1752611.699 10 0 60809 85500.00000 0 -5120644.702 24946671.745 1488839.416 10 0 60810 0.00000 0 -4857998.808 24597278.077 4701371.987 10 0 60810 900.00000 0 -4594453.516 23840719.426 7822583.464 10 0 60810 1800.00000 0 -4386527.918 22692015.488 10791834.896 10 0 60810 2700.00000 0 -4287062.438 21179321.030 13551432.200 10 0 60810 3600.00000 0 -4342761.664 19342855.005 16047748.823 10 0 60810 4500.00000 0 -4592002.838 17233340.664 18232269.430 10 0 60810 5400.00000 0 -5063003.350 14910021.592 20062533.937 10 0 60810 6300.00000 0 -5772425.373 12438336.250 21502963.538 10 0 60810 7200.00000 0 -6724477.359 9887347.870 22525552.775 10 0 60810 8100.00000 0 -7910551.158 7327036.589 23110414.352 10 0 60810 9000.00000 0 -9309411.024 4825566.321 23246166.301 10 0 60810 9900.00000 0 -10887927.585 2446639.836 22930154.094 10 0 60810 10800.00000 0 -12602326.959 247051.656 22168503.437 10 0 60810 11700.00000 0 -14399903.603 -1725459.924 20976002.642 10 0 60810 12600.00000 0 -16221125.876 -3433972.891 19375816.697 10 0 60810 13500.00000 0 -18002046.745 -4853681.108 17399038.314 10 0 60810 14400.00000 0 -19676919.074 -5972680.134 15084084.387 10 0 60810 15300.00000 0 -21180906.068 -6792207.477 12475949.289 10 0 60810 16200.00000 0 -22452773.236 -7326328.388 9625329.372 10 0 60810 17100.00000 0 -23437448.769 -7601081.620 6587635.564 10 0 60810 18000.00000 0 -24088344.535 -7653122.359 3421913.444 10 0 60810 18900.00000 0 -24369339.853 -7527920.768 189692.044 10 0 60810 19800.00000 0 -24256344.329 -7277593.380 -3046215.794 10 0 60810 20700.00000 0 -23738373.753 -6958460.101 -6222937.637 10 0 60810 21600.00000 0 -22818093.662 -6628431.079 -9278765.904 10 0 60810 22500.00000 0 -21511807.590 -6344334.844 -12154358.270 10 0 60810 23400.00000 0 -19848890.494 -6159301.348 -14793890.336 10 0 60810 24300.00000 0 -17870691.135 -6120311.046 -17146138.050 10 0 60810 25200.00000 0 -15628949.395 -6266013.880 -19165468.998 10 0 60810 26100.00000 0 -13183794.683 -6624910.428 -20812723.624 10 0 60810 27000.00000 0 -10601408.861 -7213972.043 -22055969.857 10 0 60810 27900.00000 0 -7951450.766 -8037758.263 -22871117.164 10 0 60810 28800.00000 0 -5304349.092 -9088068.840 -23242378.827 10 0 60810 29700.00000 0 -2728575.516 -10344145.401 -23162574.121 10 0 60810 30600.00000 0 -288010.469 -11773414.824 -22633265.042 10 0 60810 31500.00000 0 1960489.952 -13332743.865 -21664725.192 10 0 60810 32400.00000 0 3969225.998 -14970153.321 -20275741.475 10 0 60810 33300.00000 0 5701397.724 -16626920.822 -18493252.219 10 0 60810 34200.00000 0 7132388.471 -18239985.084 -16351828.337 10 0 60810 35100.00000 0 8250536.017 -19744551.691 -13893007.023 10 0 60810 36000.00000 0 9057360.269 -21076791.865 -11164490.281 10 0 60810 36900.00000 0 9567238.927 -22176521.420 -8219223.264 10 0 60810 37800.00000 0 9806545.618 -22989747.678 -5114369.821 10 0 60810 38700.00000 0 9812287.479 -23470977.284 -1910204.828 10 0 60810 39600.00000 0 9630300.262 -23585187.605 1331055.318 10 0 60810 40500.00000 0 9313077.683 -23309378.318 4546461.217 10 0 60810 41400.00000 0 8917327.222 -22633637.274 7673554.355 10 0 60810 42300.00000 0 8501356.245 -21561675.058 10651582.176 10 0 60810 43200.00000 0 8122399.436 -20110804.965 13422680.399 10 0 60810 44100.00000 0 7834001.093 -18311368.445 15932999.272 10 0 60810 45000.00000 0 7683563.462 -16205629.349 18133751.591 10 0 60810 45900.00000 0 7710165.212 -13846182.575 19982162.008 10 0 60810 46800.00000 0 7942742.729 -11293943.068 21442299.196 10 0 60810 47700.00000 0 8398711.535 -8615798.560 22485774.748 10 0 60810 48600.00000 0 9083086.546 -5882023.470 23092295.443 10 0 60810 49500.00000 0 9988138.924 -3163561.143 23250058.300 10 0 60810 50400.00000 0 11093604.665 -529287.112 22955980.882 10 0 60810 51300.00000 0 12367436.907 1956633.316 22215762.414 10 0 60810 52200.00000 0 13767071.106 4237183.813 21043774.470 10 0 60810 53100.00000 0 15241150.608 6264631.259 19462783.169 10 0 60810 54000.00000 0 16731640.748 8002267.320 17503508.007 10 0 60810 54900.00000 0 18176243.110 9425685.615 15204025.599 10 0 60810 55800.00000 0 19511008.769 10523542.103 12609029.630 10 0 60810 56700.00000 0 20673040.734 11297767.947 9768961.217 10 0 60810 57600.00000 0 21603171.835 11763227.139 6739026.489 10 0 60810 58500.00000 0 22248505.076 11946834.493 3578120.648 10 0 60810 59400.00000 0 22564709.158 11886172.431 347679.698 10 0 60810 60300.00000 0 22517972.074 11627666.098 -2889517.428 10 0 60810 61200.00000 0 22086530.084 11224395.072 -6070572.447 10 0 60810 62100.00000 0 21261707.302 10733635.140 -9133692.723 10 0 60810 63000.00000 0 20048421.825 10214234.988 -12019393.390 10 0 60810 63900.00000 0 18465136.856 9723939.395 -14671652.858 10 0 60810 64800.00000 0 16543258.637 9316772.565 -17038999.149 10 0 60810 65700.00000 0 14326006.188 9040592.373 -19075506.074 10 0 60810 66600.00000 0 11866799.911 8934918.884 -20741680.216 10 0 60810 67500.00000 0 9227236.022 9029128.637 -22005222.069 10 0 60810 68400.00000 0 6474730.793 9341090.680 -22841647.229 10 0 60810 69300.00000 0 3679932.138 9876301.654 -23234756.274 10 0 60810 70200.00000 0 914005.394 10627556.303 -23176944.891 10 0 60810 71100.00000 0 -1754094.848 11575167.404 -22669348.730 10 0 60810 72000.00000 0 -4260254.558 12687726.218 -21721820.475 10 0 60810 72900.00000 0 -6547623.652 13923372.051 -20352739.633 10 0 60810 73800.00000 0 -8568733.415 15231518.321 -18588658.500 10 0 60810 74700.00000 0 -10287221.030 16554963.405 -16463790.797 10 0 60810 75600.00000 0 -11679090.519 17832298.380 -14019352.300 10 0 60810 76500.00000 0 -12733458.553 19000511.194 -11302765.631 10 0 60810 77400.00000 0 -13452754.892 19997678.259 -8366744.068 10 0 60810 78300.00000 0 -13852369.939 20765630.554 -5268271.643 10 0 60810 79200.00000 0 -13959764.999 21252482.036 -2067498.999 10 0 60810 80100.00000 0 -13813083.315 21414913.654 1173423.664 10 0 60810 81000.00000 0 -13459321.060 21220116.257 4391553.809 10 0 60810 81900.00000 0 -12952135.965 20647309.901 7524380.303 10 0 60810 82800.00000 0 -12349386.637 19688774.701 10511039.516 10 0 60810 83700.00000 0 -11710507.014 18350348.918 13293499.794 10 0 60810 84600.00000 0 -11093827.312 16651372.340 15817690.969 10 0 60810 85500.00000 0 -10553955.078 14624076.315 18034556.658 10 0 60811 0.00000 0 -10139327.357 12312445.302 19901008.642 10 0 60811 900.00000 0 -9890037.432 9770595.326 21380765.727 10 0 60811 1800.00000 0 -9836028.662 7060739.444 22445058.422 10 0 60811 2700.00000 0 -9995731.125 4250820.238 23073189.281 10 0 60811 3600.00000 0 -10375199.445 1411910.239 23252935.611 10 0 60811 4500.00000 0 -10967788.206 -1384513.283 22980787.893 10 0 60811 5400.00000 0 -11754379.063 -4069306.267 22262019.197 10 0 60811 6300.00000 0 -12704150.458 -6578295.308 21110584.135 10 0 60811 7200.00000 0 -13775857.961 -8854705.488 19548849.168 10 0 60811 8100.00000 0 -14919571.789 -10851278.241 17607159.238 10 0 60811 9000.00000 0 -16078798.726 -12531991.732 15323248.826 10 0 60811 9900.00000 0 -17192899.283 -13873312.804 12741508.603 10 0 60811 10800.00000 0 -18199698.364 -14864929.076 9912121.746 10 0 60811 11700.00000 0 -19038179.333 -15509931.599 6890086.580 10 0 60811 12600.00000 0 -19651147.598 -15824441.519 3734144.708 10 0 60811 13500.00000 0 -19987751.008 -15836697.640 505635.743 10 0 60811 14400.00000 0 -20005750.277 -15585644.540 -2732698.713 10 0 60811 15300.00000 0 -19673443.114 -15119081.945 -5917937.970 10 0 60811 16200.00000 0 -18971160.436 -14491454.587 -8988207.752 10 0 60811 17100.00000 0 -17892271.113 -13761376.834 -11883883.983 10 0 60811 18000.00000 0 -16443652.493 -12988997.433 -14548751.075 10 0 60811 18900.00000 0 -14645606.494 -12233316.172 -16931092.090 10 0 60811 19800.00000 0 -12531224.369 -11549566.027 -18984689.705 10 0 60811 20700.00000 0 -10145226.292 -10986771.282 -20669718.860 10 0 60811 21600.00000 0 -7542323.774 -10585584.343 -21953514.308 10 0 60811 22500.00000 0 -4785172.621 -10376492.063 -22811198.864 10 0 60811 23400.00000 0 -1942000.997 -10378466.663 -23226160.854 10 0 60811 24300.00000 0 915989.576 -10598117.601 -23190372.188 10 0 60811 25200.00000 0 3717343.289 -11029379.770 -22704541.389 10 0 60811 26100.00000 0 6393077.279 -11653751.049 -21778098.907 10 0 60811 27000.00000 0 8879304.913 -12441069.268 -20429015.071 10 0 60811 27900.00000 0 11119647.301 -13350796.278 -18683453.973 10 0 60811 28800.00000 0 13067333.868 -14333755.564 -16575269.624 10 0 60811 29700.00000 0 14686905.613 -15334250.867 -14145353.565 10 0 60811 30600.00000 0 15955451.039 -16292477.227 -11440845.968 10 0 60811 31500.00000 0 16863323.990 -17147123.351 -8514224.954 10 0 60811 32400.00000 0 17414314.182 -17838055.987 -5422291.301 10 0 60811 33300.00000 0 17625263.972 -18308973.212 -2225067.907 10 0 60811 34200.00000 0 17525148.105 -18509914.558 1015364.721 10 0 60811 35100.00000 0 17153655.737 -18399521.666 4236074.285 10 0 60811 36000.00000 0 16559334.990 -17946953.472 7374500.186 10 0 60811 36900.00000 0 15797378.787 -17133374.286 10369670.560 10 0 60811 37800.00000 0 14927145.804 -15952951.080 13163388.833 10 0 60811 38700.00000 0 14009521.596 -14413316.859 15701366.434 10 0 60811 39600.00000 0 13104231.572 -12535479.511 17934279.346 10 0 60811 40500.00000 0 12267219.496 -10353178.752 19818727.845 10 0 60811 41400.00000 0 11548202.217 -7911716.968 21318080.786 10 0 60811 42300.00000 0 10988503.867 -5266311.769 22403188.094 10 0 60811 43200.00000 0 10619260.828 -2480038.053 23052947.789 10 0 60811 44100.00000 0 10460073.070 378555.609 23254716.741 10 0 60811 45000.00000 0 10518158.689 3238057.754 23004557.267 10 0 60811 45900.00000 0 10788047.251 6026924.146 22307314.866 10 0 60811 46800.00000 0 11251824.911 8676214.370 21176525.507 10 0 60811 47700.00000 0 11879921.097 11122221.666 19634154.101 10 0 60811 48600.00000 0 12632403.719 13308887.198 17710168.975 10 0 60811 49500.00000 0 13460728.450 15189898.835 15441960.294 10 0 60811 50400.00000 0 14309868.344 16730387.542 12873613.454 10 0 60811 51300.00000 0 15120733.930 17908151.261 10055051.361 10 0 60811 52200.00000 0 15832781.468 18714355.939 7041062.165 10 0 60811 53100.00000 0 16386698.927 19153685.190 3890231.489 10 0 60811 54000.00000 0 16727055.828 19243933.389 663800.178 10 0 60811 54900.00000 0 16804804.475 19015060.381 -2575529.806 10 0 60811 55800.00000 0 16579526.370 18507748.740 -5764817.580 10 0 60811 56700.00000 0 16021328.338 17771525.491 -8842109.271 10 0 60811 57600.00000 0 15112307.786 16862528.496 -11747643.444 10 0 60811 58500.00000 0 13847524.725 15841012.560 -14425012.137 10 0 60811 59400.00000 0 12235439.115 14768701.058 -16822254.852 10 0 60811 60300.00000 0 10297794.540 13706095.093 -18892864.335 10 0 60811 61200.00000 0 8068952.525 12709853.612 -20596684.910 10 0 60811 62100.00000 0 5594704.691 11830354.640 -21900686.478 10 0 60811 63000.00000 0 2930611.625 11109539.740 -22779599.840 10 0 60811 63900.00000 0 139936.918 10579131.823 -23216401.702 10 0 60811 64800.00000 0 -2708738.580 10259300.460 -23202640.653 10 0 60811 65700.00000 0 -5544124.095 10157830.183 -22738598.301 10 0 60811 66600.00000 0 -8294940.624 10269826.119 -21833282.779 10 0 60811 67500.00000 0 -10892645.063 10577969.002 -20504254.791 10 0 60811 68400.00000 0 -13274044.742 11053308.640 -18777289.395 10 0 60811 69300.00000 0 -15383694.730 11656562.535 -16685879.693 10 0 60811 70200.00000 0 -17175979.137 12339865.192 -14270591.463 10 0 60811 71100.00000 0 -18616790.595 13048894.775 -11578280.637 10 0 60811 72000.00000 0 -19684738.549 13725287.739 -8661188.190 10 0 60811 72900.00000 0 -20371836.508 14309239.862 -5575929.520 10 0 60811 73800.00000 0 -20683640.068 14742183.964 -2382397.568 10 0 60811 74700.00000 0 -20638830.366 14969431.106 857399.145 10 0 60811 75600.00000 0 -20268260.970 14942663.372 4080540.911 10 0 60811 76500.00000 0 -19613508.719 14622172.356 7224420.088 10 0 60811 77400.00000 0 -18724989.938 13978748.029 10227959.060 10 0 60811 78300.00000 0 -17659721.802 12995137.317 13032798.858 10 0 60811 79200.00000 0 -16478823.536 11667009.762 15584435.039 10 0 60811 80100.00000 0 -15244863.058 10003388.404 17833278.432 10 0 60811 81000.00000 0 -14019161.070 8026526.488 19735620.016 10 0 60811 81900.00000 0 -12859166.224 5771233.850 21254481.198 10 0 60811 82800.00000 0 -11816011.902 3283679.941 22360333.030 10 0 60811 83700.00000 0 -10932357.281 619722.302 23031670.574 10 0 60811 84600.00000 0 -10240603.307 -2157170.885 23255431.451 10 0 60811 85500.00000 0 -9761558.349 -4978318.600 23027250.583 10 0 60812 0.00000 0 -9503609.385 -7772445.916 22351546.300 10 0 60812 900.00000 0 -9462433.185 -10468417.410 21241435.658 10 0 60812 1800.00000 0 -9621259.663 -12997968.176 19718481.439 10 0 60812 2700.00000 0 -9951675.610 -15298324.384 17812274.271 10 0 60812 3600.00000 0 -10414935.123 -17314600.977 15559858.484 10 0 60812 4500.00000 0 -10963721.024 -19001878.535 13005012.285 10 0 60812 5400.00000 0 -11544282.718 -20326872.857 10197396.061 10 0 60812 6300.00000 0 -12098859.879 -21269128.029 7191585.274 10 0 60812 7200.00000 0 -12568289.101 -21821683.664 4046006.842 10 0 60812 8100.00000 0 -12894682.821 -21991189.110 821799.978 10 0 60812 9000.00000 0 -13024066.650 -21797460.718 -2418375.991 10 0 60812 9900.00000 0 -12908862.949 -21272501.720 -5611563.044 10 0 60812 10800.00000 0 -12510115.005 -20459026.993 -8695730.847 10 0 60812 11700.00000 0 -11799357.204 -19408555.781 -11610983.746 10 0 60812 12600.00000 0 -10760051.619 -18179153.564 -14300724.523 10 0 60812 13500.00000 0 -9388529.832 -16832918.876 -16712752.133 10 0 60812 14400.00000 0 -7694399.750 -15433321.259 -18800272.199 10 0 60812 15300.00000 0 -5700399.622 -14042502.540 -20522800.934 10 0 60812 16200.00000 0 -3441704.698 -12718654.705 -21846945.489 10 0 60812 17100.00000 0 -964714.671 -11513584.087 -22747046.254 10 0 60812 18000.00000 0 1674628.332 -10470563.461 -23205669.375 10 0 60812 18900.00000 0 4412922.122 -9622561.313 -23213940.616 10 0 60812 19800.00000 0 7181701.624 -8990921.679 -22771714.625 10 0 60812 20700.00000 0 9910052.251 -8584549.032 -21887576.642 10 0 60812 21600.00000 0 12527332.042 -8399631.647 -20578676.698 10 0 60812 22500.00000 0 14965890.529 -8419914.451 -18870399.329 10 0 60812 23400.00000 0 17163672.283 -8617509.488 -16795874.798 10 0 60812 24300.00000 0 19066597.719 -8954209.706 -14395340.774 10 0 60812 25200.00000 0 20630622.735 -9383250.678 -11715366.181 10 0 60812 26100.00000 0 21823391.874 -9851446.065 -8807951.701 10 0 60812 27000.00000 0 22625416.419 -10301606.756 -5729523.875 10 0 60812 27900.00000 0 23030728.544 -10675141.550 -2539841.957 10 0 60812 28800.00000 0 23046984.365 -10914729.321 699161.367 10 0 60812 29700.00000 0 22695011.903 -10966949.427 3924582.823 10 0 60812 30600.00000 0 22007823.173 -10784758.629 7073771.416 10 0 60812 31500.00000 0 21029132.247 -10329709.118 10085547.183 10 0 60812 32400.00000 0 19811441.877 -9573813.048 12901391.776 10 0 60812 33300.00000 0 18413779.471 -8500973.819 15466587.431 10 0 60812 34200.00000 0 16899177.897 -7107922.563 17731281.867 10 0 60812 35100.00000 0 15332007.254 -5404619.141 19651458.298 10 0 60812 36000.00000 0 13775269.830 -3414099.417 21189791.700 10 0 60812 36900.00000 0 12287971.900 -1171773.875 22316374.766 10 0 60812 37800.00000 0 10922682.572 1275794.409 23009299.627 10 0 60812 38700.00000 0 9723381.838 3872582.664 23255084.228 10 0 60812 39600.00000 0 8723687.807 6555202.677 23048935.217 10 0 60812 40500.00000 0 7945536.990 9255310.158 22394842.297 10 0 60812 41400.00000 0 7398372.546 11902229.746 21305502.185 10 0 60812 42300.00000 0 7078873.988 14425687.061 19802073.441 10 0 60812 43200.00000 0 6971239.167 16758534.587 17913766.718 10 0 60812 44100.00000 0 7048006.077 18839358.302 15677278.015 10 0 60812 45000.00000 0 7271379.309 20614856.634 13136075.694 10 0 60812 45900.00000 0 7595004.660 22041892.771 10339554.862 10 0 60812 46800.00000 0 7966116.368 23089134.850 7342075.456 10 0 60812 47700.00000 0 8327965.648 23738215.711 4201902.842 10 0 60812 48600.00000 0 8622427.158 23984364.084 980071.784 10 0 60812 49500.00000 0 8792672.459 23836481.336 -2260803.742 10 0 60812 50400.00000 0 8785796.607 23316661.225 -5457751.135 10 0 60812 51300.00000 0 8555286.079 22459173.676 -8548665.918 10 0 60812 52200.00000 0 8063222.955 21308956.148 -11473520.274 10 0 60812 53100.00000 0 7282131.586 19919676.827 -14175529.474 10 0 60812 54000.00000 0 6196389.171 18351451.775 -16602253.369 10 0 60812 54900.00000 0 4803140.166 16668312.458 -18706611.628 10 0 60812 55800.00000 0 3112675.405 14935530.243 -20447793.286 10 0 60812 56700.00000 0 1148259.305 13216910.093 -21792043.459 10 0 60812 57600.00000 0 -1054588.437 11572166.530 -22713312.669 10 0 60812 58500.00000 0 -3449327.487 10054491.206 -23193756.861 10 0 60812 59400.00000 0 -5980097.340 8708413.027 -23224079.110 10 0 60812 60300.00000 0 -8583813.845 7568039.396 -22803706.971 10 0 60812 61200.00000 0 -11192575.599 6655751.109 -21940802.347 10 0 60812 62100.00000 0 -13736281.272 5981404.479 -20652103.784 10 0 60812 63000.00000 0 -16145350.082 5542073.176 -18962604.096 10 0 60812 63900.00000 0 -18353433.226 5322339.792 -16905069.167 10 0 60812 64800.00000 0 -20300004.238 5295124.285 -14519406.708 10 0 60812 65700.00000 0 -21932721.035 5423014.018 -11851896.568 10 0 60812 66600.00000 0 -23209461.558 5660039.111 -8954296.921 10 0 60812 67500.00000 0 -24099948.348 5953818.040 -5882843.156 10 0 60812 68400.00000 0 -24586894.238 6247982.722 -2697158.509 10 0 60812 69300.00000 0 -24666621.300 6484780.409 540902.512 10 0 60812 70200.00000 0 -24349127.097 6607742.024 3768455.429 10 0 60812 71100.00000 0 -23657595.542 6564303.626 6922808.273 10 0 60812 72000.00000 0 -22627372.918 6308269.479 9942681.125 10 0 60812 72900.00000 0 -21304452.218 5802011.796 12769398.659 10 0 60812 73800.00000 0 -19743529.569 5018313.263 15348032.146 10 0 60812 74700.00000 0 -18005714.532 3941773.496 17628468.455 10 0 60812 75600.00000 0 -16155990.507 2569718.931 19566385.121 10 0 60812 76500.00000 0 -14260531.836 912576.585 21124112.534 10 0 60812 77400.00000 0 -12383990.067 -1006305.395 22271366.565 10 0 60812 78300.00000 0 -10586862.911 -3151384.190 22985837.590 10 0 60812 79200.00000 0 -8923055.792 -5476166.766 23253624.669 10 0 60812 80100.00000 0 -7437737.645 -7924921.514 23069506.559 10 0 60812 81000.00000 0 -6165580.216 -10434786.790 22437044.411 10 0 60812 81900.00000 0 -5129453.885 -12938189.388 21368514.074 10 0 60812 82800.00000 0 -4339633.989 -15365472.905 19884669.158 10 0 60812 83700.00000 0 -3793550.124 -17647627.015 18014339.200 10 0 60812 84600.00000 0 -3476088.108 -19719004.300 15793870.393 10 0 60812 85500.00000 0 -3360431.122 -21519911.472 13266419.471 99